Location: Cheching
(60.0667°N, 164.2167°W)
Time: 00:41:23
(UTC+00:00)

DX 1 - Pass Details

Date: 26 January 2021
Orbit: 618 x 631 km, 98.5° (Epoch: 07 March)

Event Time Altitude Azimuth Distance (km) Brightness Sun altitude
Rises 18:11:03 0° 216° (SW) 2,910 ? -8.6°
Reaches altitude 10° 18:14:09 10° 240° (WSW) 2,006 ? -8.3°
Maximum altitude 18:16:38 15° 275° (W) 1,707 ? -8.0°
Drops below altitude 10° 18:19:08 10° 310° (NW) 2,010 ? -7.7°
Enters shadow 18:20:06 - 320° (NW) 2,253 ? -7.6°
